Orbital Elements at Epoch 2459200.5 (2020-Dec-17.0) TDB
Reference: JPL 18 (heliocentric ecliptic J2000)
Element | Value | Uncertainty (1-sigma) | Units |
e | .1717761465769987 | 4.4219e-08 | |
a | 2.277328391960054 | 1.859e-08 | au |
q | 1.886137696298763 | 9.9657e-08 | au |
i | 4.225459466405479 | 5.4474e-06 | deg |
node | 289.1191408599893 | 9.0834e-05 | deg |
peri | 342.7989638211482 | 9.4246e-05 | deg |
M | 260.1079139319485 | 3.181e-05 | deg |
tp | 2459548.809644285574 (2021-Nov-30.30964429) | 0.0001141 | TDB |
period | 1255.269329918523 3.44 | 1.537e-05 4.208e-08 | d yr |
n | .286791042702658 | 3.5116e-09 | deg/d |
Q | 2.668519087621345 | 2.1783e-08 | au |
|
| | Orbit Determination Parameters
Additional Information
|